Modesto, CA

4:42 PM PST on November 13, 2019 (GMT -0800)
Modesto City-County-Sham

Weather History for KMOD - September, 2019

Change the Weather History Date:

Sunday, September 22, 2019

  Actual Average Record
Temperature  
Mean Temperature 72 °F -  
Max Temperature 90 °F 88 °F 102 °F (1939)
Min Temperature 54 °F 58 °F 44 °F (1945)
Degree Days  
Heating Degree Days 0 0  
Month to date heating degree days 0 0  
Since 1 July heating degree days 0 0  
Cooling Degree Days 7 8  
Month to date cooling degree days 210 218  
Year to date cooling degree days 1645 1554  
Growing Degree Days 22 (Base 50)    
Moisture  
Dew Point 49 °F    
Average Humidity 54    
Maximum Humidity 86    
Minimum Humidity 21    
Precipitation  
Precipitation 0.00 in 0.01 in 1.04 in (1983)
Month to date precipitation 0.12 0.15  
Year to date precipitation 8.98 8.92  
Snow  
Snow 0.00 in - - ()
Month to date snowfall 0.0  
Since 1 July snowfall 0.0  
Since 1 September snowfall 0.0  
Snow Depth 0.00 in    
Sea Level Pressure  
Sea Level Pressure 29.88 in    
Wind  
Wind Speed 2 mph (NNW)    
Max Wind Speed 13 mph    
Max Gust Speed 15 mph    
Visibility 10 miles    
Events      
T = Trace of Precipitation, MM = Missing Value Source: NWS Daily Summary

Daily Weather History Graph

Daily Weather History Graph

Search for Another Location

Airport or City:

Astronomy

Sep. 22, 2019 Rise Set
Actual Time 6:51 AM PDT 7:00 PM PDT
Civil Twilight 6:25 AM PDT 7:27 PM PDT
Nautical Twilight 5:54 AM PDT 7:57 PM PDT
Astronomical Twilight 5:23 AM PDT 8:28 PM PDT
Moon No Moon Rise 2:54 PM PDT (9/22)
Length of Visible Light 13h 01m
Length of Day
12h 09m
Last Quarter, 43% of the Moon is Illuminated
Sep 22
Last Quarter
Sep 28
New
Oct 5
First Quarter
Oct 13
Full
Oct 21
Last Quarter

Hourly Weather History & Observations

Time (PDT) Temp. Dew Point Humidity Pressure Visibility Wind Dir Wind Speed Gust Speed Precip Events Conditions
12:53 AM 64.9 °F 50.0 °F 58% 29.89 in 10.0 mi Calm Calm - N/A   Clear
1:53 AM 62.1 °F 53.1 °F 72% 29.89 in 10.0 mi Calm Calm - N/A   Clear
2:53 AM 60.1 °F 52.0 °F 75% 29.88 in 10.0 mi Calm Calm - N/A   Clear
3:53 AM 57.9 °F 52.0 °F 81% 29.88 in 10.0 mi Calm Calm - N/A   Clear
4:53 AM 55.9 °F 52.0 °F 87% 29.88 in 10.0 mi Calm Calm - N/A   Clear
5:53 AM 55.9 °F 52.0 °F 87% 29.90 in 10.0 mi Calm Calm - N/A   Clear
6:53 AM 55.0 °F 51.1 °F 86% 29.91 in 10.0 mi Calm Calm - N/A   Clear
7:53 AM 57.9 °F 52.0 °F 81% 29.92 in 10.0 mi ESE 4.6 mph - N/A   Clear
8:53 AM 66.0 °F 54.0 °F 65% 29.93 in 10.0 mi SE 3.5 mph - N/A   Clear
9:53 AM 73.0 °F 51.1 °F 46% 29.93 in 10.0 mi Calm Calm - N/A   Clear
10:53 AM 77.0 °F 48.9 °F 37% 29.92 in 10.0 mi Calm Calm - N/A   Clear
11:53 AM 82.0 °F 48.0 °F 30% 29.90 in 10.0 mi Calm Calm - N/A   Clear
12:53 PM 86.0 °F 46.0 °F 25% 29.88 in 10.0 mi Calm Calm - N/A   Clear
1:53 PM 88.0 °F 44.1 °F 22% 29.86 in 10.0 mi SW 3.5 mph - N/A   Mostly Cloudy
2:53 PM 89.1 °F 45.0 °F 22% 29.86 in 10.0 mi Variable 3.5 mph - N/A   Mostly Cloudy
3:53 PM 87.1 °F 46.0 °F 24% 29.84 in 10.0 mi NW 10.4 mph - N/A   Scattered Clouds
4:53 PM 88.0 °F 43.0 °F 21% 29.83 in 10.0 mi Variable 3.5 mph - N/A   Partly Cloudy
5:53 PM 87.1 °F 45.0 °F 23% 29.84 in 10.0 mi NW 8.1 mph - N/A   Clear
6:53 PM 84.0 °F 46.9 °F 27% 29.83 in 10.0 mi NW 4.6 mph - N/A   Clear
7:53 PM 79.0 °F 51.1 °F 38% 29.84 in 10.0 mi Calm Calm - N/A   Clear
8:53 PM 78.1 °F 46.9 °F 33% 29.86 in 10.0 mi NW 6.9 mph - N/A   Clear
9:53 PM 75.9 °F 48.0 °F 37% 29.87 in 10.0 mi NNW 8.1 mph - N/A   Clear
10:53 PM 75.0 °F 48.0 °F 38% 29.86 in 10.0 mi North 3.5 mph - N/A   Clear
11:53 PM 71.1 °F 48.9 °F 45% 29.86 in 10.0 mi NNE 3.5 mph - N/A   Clear